PAWGPAPG

Guest
Details From PAWG - Wrangell
To PAPG - Petersburg James A Johnson
Flight Number -
Tags Routegen Generated
Created
Modified
Stats Distance 30 nm / 55 km
Max Altitude 100 ft / 30 m
Waypoints 5
Social Downloads 13
Likes 0
Share

Download

Looking for another format? Having issues loading an existing format? Contact us
Advertisement - Login to hide

Notes

Departing runway 30 PAWG. Arriving runway 7 PAPG.

Route

PAWG +56.53_-132.49 +56.68_-132.65 +56.83_-132.81 PAPG

ID Type Via Altitude (ft/m) Position (lat/lon) Dist (leg/tot) Name
O PAWG APT - 0 / 0 56.48860 / -132.38250 - / 0 nm
+56.53_-132.49 LATLON - 100 / 30 56.52631 / -132.49443 4 / 4 nm
+56.68_-132.65 LATLON - 100 / 30 56.67724 / -132.65037 10 / 14 nm
+56.83_-132.81 LATLON - 100 / 30 56.82818 / -132.80631 10 / 25 nm
O PAPG APT - 0 / 0 56.80436 / -132.93116 4 / 29 nm

Altitude Profile

Advertisement - Login to hide

PAWG

Details ICAO PAWG (WRG)
Name Wrangell
Region USA (Alaska)
Timezone America/Juneau (UTC-8.0)
Stats Elevation 44 ft / 13 m (AMSL)
Location 56.484300° -132.370000°
Runways 1
Magnetic Variation 17.822° E

METAR

PAWG 171056Z AUTO 12004KT 1 3/4SM BR OVC002 01/00 A2988

Decode

TAF

PAWG 171133Z 1712/1812 12004KT 1SM BR BCFG OVC002 FM171600 09005KT 6SM BR BCFG SCT002 FM171800 09007KT P6SM SKC AMD LTD TO CLD VIS AND WIND 1712/1715

Decode

Departure Runways

ID Width Length Bearing (true/mag) Surface Threshold Overrun Markings Lighting
10 157 ft / 48 m 5,985 ft / 1,824 m 121.40° / 103.58° ASPHALT 0 ft / 0 m 197 ft / 60 m PREC-APP CENTERLINE EDGE THRESHOLD
28 157 ft / 48 m 5,985 ft / 1,824 m 301.42° / 283.60° ASPHALT 0 ft / 0 m 197 ft / 60 m PREC-APP CENTERLINE EDGE THRESHOLD

PAPG

Details ICAO PAPG (PSG)
Name Petersburg James A. Johnson
Region USA (Alaska)
Timezone America/Juneau (UTC-8.0)
Stats Elevation 113 ft / 34 m (AMSL)
Location 56.801500° -132.946000°
Runways 1
Magnetic Variation 17.856° E

METAR

PAPG 171125Z AUTO 00000KT 3SM BR SCT002 M03/M03 A2988 RMK AO2 FZRANO

Decode

TAF

PAPG 171133Z 1712/1812 22003KT 3SM BR BCFG SCT002 TEMPO 1712/1716 1SM BR BCFG BKN002 FM171700 VRB04KT P6SM SCT006 FM172000 07005KT P6SM SKC AMD LTD TO CLD VIS AND WIND 1712/1715

Decode

Destination Runways

ID Width Length Bearing (true/mag) Surface Threshold Overrun Markings Lighting
05 150 ft / 46 m 6,382 ft / 1,945 m 70.70° / 52.84° ASPHALT 0 ft / 0 m 200 ft / 61 m PREC-APP CENTERLINE EDGE THRESHOLD RAIL REIL-OMNI
23 150 ft / 46 m 6,382 ft / 1,945 m 250.72° / 232.86° ASPHALT 400 ft / 122 m 200 ft / 61 m PREC-APP CENTERLINE EDGE THRESHOLD ODALS REIL-OMNI

Approach Navaids

Runway Type Ident Frequency Range Bearing (true/mag) Slope Elevation
23 LOC-LOC IPSG 110.50 MHz 18 nm / 33 km 250.71° / 232.85 ° - 113 ft / 34 m (AMSL)

Popular Alternatives